Weather History for KANE - April, 2014

Change the Weather History Date:

Friday, April 25, 2014

  Actual Average (KMSP) Record (KMSP)
Temperature  
Mean Temperature 46 °F 52 °F  
Max Temperature 62 °F 63 °F 91 °F (1962)
Min Temperature 30 °F 42 °F 25 °F (1907)
Degree Days  
Heating Degree Days 19 13  
Month to date heating degree days 471  
Since 1 July heating degree days 7259  
Cooling Degree Days 0 0  
Month to date cooling degree days 0  
Year to date cooling degree days 0  
Moisture  
Dew Point 36 °F    
Average Humidity 86    
Maximum Humidity 100    
Minimum Humidity 45    
Precipitation  
Precipitation 0.00 in 0.10 in 1.47 in (1902)
Month to date precipitation 2.12  
Year to date precipitation 5.68  
Snow  
Snow 0.00 in 0.10 in 3.20 in (1950)
Month to date snowfall 2.2  
Since 1 July snowfall 54.2  
Snow Depth -    
Sea Level Pressure  
Sea Level Pressure 29.77 in    
Wind  
Wind Speed 3 mph (NNW)    
Max Wind Speed 17 mph    
Max Gust Speed 23 mph    
Visibility 5 miles    
Events Fog    
T = Trace of Precipitation, MM = Missing Value Source: NWS Daily Summary

Daily Weather History Graph

Daily Weather History Graph

Search for Another Location

Airport or City:

Trip Planner

Search our weather history database for the weather conditions in past years. The results will help you decide how hot, cold, wet, or windy it might be!

Date:

Astronomy

Apr. 25, 2014 Rise Set
Actual Time 6:11 AM CDT 8:11 PM CDT
Civil Twilight 5:39 AM CDT 8:43 PM CDT
Nautical Twilight 5:00 AM CDT 9:22 PM CDT
Astronomical Twilight 4:17 AM CDT 10:05 PM CDT
Moon 4:10 AM CDT (4/25) 4:24 PM CDT (4/25)
Length of Visible Light 15h 03m
Length of Day
14h 00m
Waning Crescent, 15% of the Moon is Illuminated
Apr 25
Waning Crescent
Apr 29
New
May 6
First Quarter
May 14
Full
May 21
Last Quarter

Hourly Weather History & Observations

Time (CDT) Temp. Windchill Dew Point Humidity Pressure Visibility Wind Dir Wind Speed Gust Speed Precip Events Conditions
12:15 AM 35.6 °F - 35.6 °F 100% 29.73 in 0.8 mi Calm Calm - N/A   Mist
12:35 AM 35.6 °F - 35.6 °F 100% 29.73 in 1.0 mi Calm Calm - N/A   Mostly Cloudy
12:55 AM 35.6 °F - 35.6 °F 100% 29.72 in 0.5 mi Calm Calm - N/A Fog Fog
1:15 AM 35.6 °F - 35.6 °F 100% 29.71 in 0.5 mi Calm Calm - N/A Fog Fog
1:35 AM 33.8 °F - 33.8 °F 100% 29.70 in 1.5 mi Calm Calm - N/A   Mist
1:55 AM 33.8 °F 30.8 °F 33.8 °F 100% 29.70 in 0.5 mi SSE 3.5 mph - N/A Fog Fog
2:15 AM 33.8 °F - 33.8 °F 100% 29.70 in 1.5 mi Calm Calm - N/A   Mostly Cloudy
2:35 AM 35.6 °F - 35.6 °F 100% 29.71 in 0.8 mi Calm Calm - N/A   Mostly Cloudy
2:55 AM 33.8 °F - 33.8 °F 100% 29.71 in 0.2 mi Calm Calm - N/A Fog Fog
3:16 AM 33.8 °F - 33.8 °F 100% 29.71 in 0.5 mi Calm Calm - N/A Fog Fog
3:35 AM 32.0 °F - 32.0 °F 100% 29.71 in 0.5 mi Calm Calm - N/A Fog Fog
3:55 AM 33.8 °F - 33.8 °F 100% 29.71 in 0.2 mi Calm Calm - N/A Fog Fog
4:16 AM 32.0 °F - 32.0 °F 100% 29.71 in 0.2 mi Calm Calm - N/A Fog Fog
4:35 AM 32.0 °F - 32.0 °F 100% 29.71 in 0.2 mi Calm Calm - N/A Fog Fog
4:55 AM 30.2 °F - 30.2 °F 100% 29.71 in 0.2 mi Calm Calm - N/A Fog Light Freezing Fog
5:16 AM 30.2 °F - 30.2 °F 100% 29.70 in 0.2 mi Calm Calm - N/A Fog Light Freezing Fog
5:35 AM 30.2 °F - 30.2 °F 100% 29.70 in 0.2 mi Calm Calm - N/A Fog Light Freezing Fog
5:55 AM 30.2 °F - 30.2 °F 100% 29.70 in 0.2 mi Calm Calm - N/A Fog Light Freezing Fog
6:16 AM 30.2 °F 26.7 °F 30.2 °F 100% 29.70 in 0.5 mi South 3.5 mph - N/A Fog Light Freezing Fog
6:35 AM 32.0 °F - 32.0 °F 100% 29.71 in 0.2 mi Calm Calm - N/A Fog Fog
6:55 AM 32.0 °F - 32.0 °F 100% 29.72 in 1.0 mi Calm Calm - N/A   Mostly Cloudy
7:45 AM - - - N/A% 29.73 in 10.0 mi West 6.9 mph - N/A   Clear
8:45 AM 44.6 °F 37.2 °F 42.8 °F 93% 29.76 in 10.0 mi WNW 17.3 mph 23.0 mph N/A   Overcast
9:25 AM 42.8 °F 36.6 °F 42.8 °F 100% 29.78 in 10.0 mi NW 11.5 mph 17.3 mph N/A   Overcast
9:45 AM 42.8 °F 36.6 °F 42.8 °F 100% 29.78 in 10.0 mi WNW 11.5 mph 17.3 mph N/A   Overcast
10:50 AM 46.4 °F 41.1 °F 42.8 °F 87% 29.81 in 10.0 mi WNW 11.5 mph - N/A   Overcast
11:00 AM 46.4 °F 41.1 °F 42.8 °F 87% 29.80 in 10.0 mi WNW 11.5 mph - N/A   Overcast
11:45 AM 48.2 °F - 42.8 °F 82% 29.80 in 10.0 mi WNW 11.5 mph 17.3 mph N/A   Mostly Cloudy
12:50 PM 55.4 °F - 42.8 °F 63% 29.80 in 10.0 mi West 5.8 mph - N/A   Scattered Clouds
5:45 PM 62.6 °F - 41.0 °F 45% 29.79 in 10.0 mi NW 13.8 mph 20.7 mph N/A   Scattered Clouds
6:45 PM 60.8 °F - 39.2 °F 45% 29.81 in 10.0 mi NNW 11.5 mph - N/A   Clear
7:45 PM 57.2 °F - 41.0 °F 55% 29.83 in 10.0 mi NNW 4.6 mph - N/A   Clear
8:45 PM 51.8 °F - 39.2 °F 62% 29.86 in 10.0 mi North 6.9 mph - N/A   Clear
9:16 PM 51.8 °F - 37.4 °F 58% 29.88 in 10.0 mi NNE 8.1 mph - N/A   Clear
9:35 PM 50.0 °F - 37.4 °F 62% 29.89 in 10.0 mi NNE 6.9 mph - N/A   Clear
9:55 PM 48.2 °F - 35.6 °F 62% 29.90 in 10.0 mi NNE 10.4 mph - N/A   Clear
10:15 PM 46.4 °F 41.9 °F 35.6 °F 66% 29.91 in 10.0 mi NNE 9.2 mph - N/A   Clear
10:35 PM 46.4 °F 44.3 °F 33.8 °F 62% 29.91 in 10.0 mi NNE 4.6 mph - N/A   Clear
10:55 PM 44.6 °F 41.4 °F 33.8 °F 66% 29.92 in 10.0 mi NNE 5.8 mph - N/A   Clear
11:15 PM 44.6 °F 41.4 °F 33.8 °F 66% 29.92 in 10.0 mi NNE 5.8 mph - N/A   Clear
11:56 PM 42.8 °F 38.6 °F 33.8 °F 70% 29.93 in 10.0 mi NNE 6.9 mph - N/A   Clear